FW8563 Weather Reports


Display with metric or nautical units.
time (UTC)temp
F
wind
direction
speed
MPH
gust
MPH
rain 1hr
in
rain 24hr
in
rain mn
in
humidity
%
barometer
mb
20260504070217 57 158 0.0 1.0 0.00 0.01 0.01 77 1021.3
20260504050207 53 37 0.0 0.0 0.00 0.01 0.01 89 1020.7
20260504045707 53 37 0.0 0.0 0.00 0.01 0.01 90 1020.7
20260504045207 52 37 0.0 0.0 0.00 0.01 0.01 90 1020.7
20260504044705 52 37 0.0 0.0 0.00 0.01 0.01 91 1020.6
20260504044207 52 37 0.0 0.0 0.00 0.01 0.01 91 1020.5
20260504043708 52 37 0.0 0.0 0.00 0.01 0.01 92 1020.5
20260504043205 51 37 0.0 0.0 0.00 0.01 0.01 93 1020.5
20260504041205 51 37 0.0 0.0 0.00 0.01 0.01 94 1020.3
20260504040159 50 37 0.0 0.0 0.00 0.01 0.01 93 1020.3
20260504035701 50 37 0.0 0.0 0.00 0.01 0.01 92 1020.2
20260504035202 51 37 0.0 0.0 0.00 0.01 0.01 92 1020.3
20260504034701 51 37 0.0 0.0 0.00 0.01 0.01 91 1020.3
20260504034159 51 37 0.0 0.0 0.00 0.01 0.01 92 1020.2
20260504033653 51 37 0.0 0.0 0.00 0.01 0.01 92 1020.1
20260504033147 51 37 0.0 0.0 0.00 0.01 0.01 94 1020.2
20260504032646 51 321 0.0 0.0 0.00 0.01 0.01 95 1020.3
20260504032146 50 321 0.0 0.0 0.00 0.01 0.01 95 1020.3
20260504031645 50 321 0.0 0.0 0.01 0.01 0.01 95 1020.3
20260504031141 49 321 0.0 0.0 0.01 0.01 0.01 95 1020.3
20260504030639 49 321 0.0 1.0 0.01 0.01 0.01 94 1020.5
20260504025637 51 310 0.0 0.0 0.01 0.01 0.01 92 1020.5
20260504024633 51 99 0.0 0.0 0.01 0.01 0.01 92 1020.5
20260504024131 51 99 0.0 0.0 0.01 0.01 0.01 92 1020.3
20260504023630 51 100 0.0 0.0 0.01 0.01 0.01 93 1020.3
20260504023130 51 99 0.0 0.0 0.01 0.01 0.01 94 1020.5
20260504022629 51 83 0.0 0.0 0.01 0.01 0.01 95 1020.6
20260504022127 51 83 0.0 0.0 0.01 0.01 0.01 96 1020.6
20260504021625 51 39 0.0 0.0 0.00 0.00 0.00 96 1020.5
20260504021126 51 39 0.0 0.0 0.00 0.00 0.00 96 1020.6
20260504020622 51 39 0.0 0.0 0.00 0.00 0.00 96 1020.6
20260504020119 51 39 0.0 0.0 0.00 0.00 0.00 96 1020.7
20260504015617 50 39 0.0 0.0 0.00 0.00 0.00 96 1020.6
20260504015116 49 39 0.0 0.0 0.00 0.00 0.00 96 1020.6
20260504014615 49 39 0.0 0.0 0.00 0.00 0.00 95 1020.6
20260504013613 49 39 0.0 1.0 0.00 0.00 0.00 96 1020.5
20260504013113 48 39 0.0 1.0 0.00 0.00 0.00 96 1020.5
20260504012612 48 44 0.0 0.0 0.00 0.00 0.00 96 1020.5
20260504012112 49 45 0.0 0.0 0.00 0.00 0.00 96 1020.6
20260504011607 49 45 0.0 1.0 0.00 0.00 0.00 96 1020.6
20260504011110 49 45 0.0 1.0 0.00 0.00 0.00 96 1020.6
20260504010106 50 86 0.0 1.0 0.00 0.00 0.00 96 1020.6
20260504005605 50 80 0.0 1.0 0.00 0.00 0.00 96 1020.7
20260504005105 51 80 0.0 1.0 0.00 0.00 0.00 96 1020.7
20260504004607 51 101 0.0 1.0 0.00 0.00 0.00 96 1020.7
20260504004102 51 108 0.0 1.0 0.00 0.00 0.00 96 1020.8
20260504003055 51 108 0.0 1.0 0.00 0.00 0.00 96 1020.8
20260504002553 51 86 0.0 0.0 0.00 0.00 0.00 96 1020.8
20260504002053 51 128 0.0 0.0 0.00 0.00 0.00 96 1020.8
20260504001553 51 97 0.0 0.0 0.00 0.00 0.00 95 1020.8
20260504000551 51 102 0.0 1.0 0.00 0.00 0.00 95 1020.8
20260504000100 51 113 0.0 1.0 0.00 0.00 0.00 96 1020.9
20260503235550 51 83 0.0 1.0 0.00 0.00 0.00 96 1021.0
20260503235047 51 71 0.0 1.0 0.00 0.00 0.00 96 1021.0
20260503234044 52 86 1.0 5.0 0.00 0.00 0.00 96 1021.0
20260503233540 52 100 1.0 5.0 0.00 0.00 0.00 96 1021.1
20260503233044 52 113 0.0 2.0 0.00 0.00 0.00 96 1021.1
20260503231530 52 122 0.0 2.0 0.00 0.00 0.00 96 1021.1
20260503230525 53 119 1.0 4.0 0.00 0.00 0.00 96 1021.1
20260503230023 53 119 0.0 4.0 0.00 0.00 0.00 96 1021.1
20260503225023 53 126 0.0 2.0 0.00 0.00 0.00 96 1021.2
20260503224523 53 130 0.0 2.0 0.00 0.00 0.00 96 1021.3
20260503223520 53 116 1.0 3.0 0.00 0.00 0.00 96 1021.4
20260503223018 53 153 1.0 3.0 0.00 0.00 0.00 95 1021.3
20260503222520 53 121 1.0 3.0 0.00 0.00 0.00 95 1021.2
20260503222017 53 149 0.0 2.0 0.00 0.00 0.00 95 1021.3
20260503221518 53 148 0.0 2.0 0.00 0.00 0.00 95 1021.2
20260503221017 53 120 0.0 2.0 0.00 0.00 0.00 95 1021.2
20260503220018 53 146 1.0 3.0 0.00 0.00 0.00 95 1021.1
20260503215015 53 215 1.0 4.0 0.00 0.00 0.00 95 1021.2
20260503214515 53 103 1.0 4.0 0.00 0.00 0.00 95 1021.1
20260503214015 53 226 1.0 4.0 0.00 0.00 0.00 95 1021.1
20260503213513 53 212 1.0 5.0 0.00 0.00 0.00 94 1021.1
20260503213014 53 126 2.0 6.0 0.00 0.00 0.00 94 1021.0
20260503212510 53 120 2.0 6.0 0.00 0.00 0.00 93 1021.0
20260503212013 53 150 1.0 3.0 0.00 0.00 0.00 92 1021.0
20260503211513 53 123 0.0 1.0 0.00 0.00 0.00 91 1021.0
20260503211011 53 145 0.0 1.0 0.00 0.00 0.00 90 1021.0
20260503210511 54 83 0.0 1.0 0.00 0.00 0.00 90 1021.0
20260503210011 54 84 0.0 2.0 0.00 0.00 0.00 89 1021.0
20260503205005 54 127 0.0 1.0 0.00 0.00 0.00 89 1021.0
20260503204459 54 98 0.0 1.0 0.00 0.00 0.00 90 1021.1
20260503203954 54 108 0.0 1.0 0.00 0.00 0.00 91 1021.2
20260503203452 54 107 0.0 1.0 0.00 0.00 0.00 91 1021.1
20260503202952 54 135 0.0 0.0 0.00 0.00 0.00 91 1021.3
20260503202451 54 115 0.0 0.0 0.00 0.00 0.00 91 1021.1
20260503201950 54 105 0.0 1.0 0.00 0.00 0.00 90 1021.2
20260503200953 55 117 0.0 1.0 0.00 0.00 0.00 90 1021.1
20260503200452 55 127 0.0 1.0 0.00 0.00 0.00 89 1021.1
20260503194949 55 116 0.0 1.0 0.00 0.00 0.00 88 1020.9
20260503194450 56 153 0.0 1.0 0.00 0.00 0.00 86 1020.9
20260503193950 56 132 0.0 2.0 0.00 0.00 0.00 86 1021.0
20260503193447 56 123 0.0 3.0 0.00 0.00 0.00 85 1020.9
20260503192941 57 196 0.0 3.0 0.00 0.00 0.00 84 1020.8
20260503192437 57 150 0.0 2.0 0.00 0.00 0.00 83 1020.9
20260503191434 58 120 0.0 2.0 0.00 0.00 0.00 78 1020.7
20260503190435 58 203 0.0 2.0 0.00 0.00 0.00 63 1020.5
20260503185933 58 208 0.0 2.0 0.00 0.00 0.00 63 1020.6
20260503185431 59 127 0.0 2.0 0.00 0.00 0.00 63 1020.5
20260503184932 59 138 1.0 6.0 0.00 0.00 0.00 62 1020.3
20260503183932 59 202 2.0 8.0 0.00 0.00 0.00 61 1020.2
20260503183429 60 288 2.0 8.0 0.00 0.00 0.00 61 1020.2
20260503182927 60 232 2.0 7.0 0.00 0.00 0.00 61 1020.1
20260503182427 60 253 1.0 6.0 0.00 0.00 0.00 60 1020.1
20260503181927 60 252 2.0 7.0 0.00 0.00 0.00 60 1020.1
20260503180928 61 262 1.0 8.0 0.00 0.00 0.00 59 1020.0
20260503180428 61 216 2.0 8.0 0.00 0.00 0.00 60 1020.1
20260503175926 62 269 2.0 8.0 0.00 0.00 0.00 59 1020.1
20260503175423 62 244 2.0 7.0 0.00 0.00 0.00 59 1020.1
20260503174924 63 262 2.0 7.0 0.00 0.00 0.00 60 1020.0
20260503174427 63 252 2.0 6.0 0.00 0.00 0.00 58 1020.0
20260503173925 63 258 2.0 6.0 0.00 0.00 0.00 58 1019.9
20260503173424 63 207 2.0 9.0 0.00 0.00 0.00 58 1019.9
20260503172923 63 273 2.0 9.0 0.00 0.00 0.00 58 1019.9
20260503172424 63 211 2.0 9.0 0.00 0.00 0.00 58 1019.9
20260503171925 64 239 3.0 9.0 0.00 0.00 0.00 57 1019.9
20260503170924 64 274 3.0 10.0 0.00 0.00 0.00 58 1019.9
20260503170423 65 261 4.0 10.0 0.00 0.00 0.00 57 1019.9
20260503150900 68 270 1.0 4.0 0.00 0.00 0.00 56 1020.2
20260503150400 68 255 2.0 8.0 0.00 0.00 0.00 54 1020.3
20260503131345 67 257 5.0 14.0 0.00 0.00 0.00 59 1021.4
20260503130849 67 278 5.0 13.0 0.00 0.00 0.00 59 1021.5
20260503130346 68 271 4.0 13.0 0.00 0.00 0.00 58 1021.6
20260503110336 67 127 2.0 7.0 0.00 0.00 0.00 54 1022.0
20260503090322 62 170 1.0 5.0 0.00 0.00 0.00 66 1022.7
20260503081309 59 211 1.0 4.0 0.00 0.00 0.00 78 1022.7
20260503080806 59 102 1.0 4.0 0.00 0.00 0.00 78 1022.7